Wind_Speed
55 56 58 60 63 64 62 65 65 68 68 70 74 79 82 82 85 88 92 89 90 100 104 105 108 111 111 111 115 120 124 139 140 147 146 141 125 105 89 84 77 65 51
58 60 60 66 65 66 66 66 68 71 72 72 78 83 85 87 90 94 94 90 95 102 106 108 112 115 115 113 119 120 132 137 144 150 146 135 114 91 85 79 68 53 44
65 61 66 68 66 67 70 68 72 74 73 75 83 86 89 91 93 93 90 91 102 107 107 107 115 114 114 114 116 125 132 137 147 148 147 127 98 88 80 70 56 45 37
71 65 69 73 69 69 70 72 76 77 77 81 84 87 88 90 94 91 92 99 106 111 110 112 120 119 118 117 120 131 129 142 146 143 135 114 89 80 71 59 46 39 35
70 70 74 71 69 69 74 78 79 80 80 83 87 91 89 91 93 96 99 105 109 111 109 119 123 119 117 118 123 132 133 140 140 137 126 103 81 74 66 53 41 38 38
74 72 72 77 78 73 77 81 80 82 84 89 93 88 88 93 96 100 106 108 110 110 115 120 121 118 121 123 130 130 133 142 142 128 117 96 74 70 63 53 45 43 41
75 76 82 84 82 81 86 78 83 88 89 92 90 90 92 96 101 103 112 109 111 114 116 118 118 117 122 128 130 130 140 138 135 119 110 86 69 65 63 58 51 46 42
82 86 87 83 81 82 84 81 87 93 89 87 89 93 96 106 111 116 114 112 114 114 122 119 117 121 129 129 134 135 143 141 127 103 96 79 65 61 57 54 49 47 48
85 87 89 84 82 85 92 98 92 85 86 91 98 102 111 115 113 110 111 114 115 122 121 119 117 123 127 132 135 142 144 137 122 90 84 74 61 56 55 50 49 50 52
90 90 90 90 93 95 91 90 89 95 98 102 105 110 112 115 115 112 112 114 120 119 118 120 126 126 131 131 142 143 131 130 115 86 80 71 60 56 54 53 53 54 54
92 93 94 95 96 98 93 97 109 101 107 105 110 117 119 113 109 110 113 116 116 117 119 123 130 127 131 134 137 134 124 123 110 88 80 68 58 58 58 57 56 55 56
100 102 102 99 97 102 108 107 99 100 104 114 116 112 106 107 111 113 117 114 114 116 121 127 130 130 138 139 139 132 123 112 97 84 75 67 55 58 60 59 59 57 55
104 107 108 107 109 112 106 98 109 116 110 115 109 111 111 113 116 112 116 116 117 121 127 129 130 134 141 138 124 122 117 102 90 78 72 66 56 56 60 60 61 59 59
110 110 109 106 104 103 108 115 112 108 109 111 111 113 108 115 112 116 117 120 122 127 129 130 137 138 135 132 117 116 110 96 77 73 71 64 57 58 60 60 62 61 61
108 107 111 111 109 109 107 109 111 115 111 115 114 114 113 114 115 119 122 123 127 131 135 137 136 138 128 115 112 114 111 95 75 67 66 60 58 58 60 62 64 64 64
109 110 111 109 108 106 110 110 108 112 112 114 119 118 119 119 122 125 128 132 133 133 134 134 135 127 113 114 114 113 102 79 73 72 67 61 57 58 61 64 66 67 66
112 109 108 107 109 107 108 110 111 115 119 119 120 125 126 129 133 132 130 133 136 136 135 128 122 114 108 110 109 110 92 79 71 75 71 60 57 57 61 64 68 70 70
124 121 116 121 122 120 116 116 120 123 121 124 127 130 134 139 136 133 134 135 133 124 124 118 108 109 108 110 111 104 90 73 70 69 67 58 56 59 60 65 69 71 72
129 128 128 129 129 127 122 123 126 129 133 134 132 131 131 133 134 137 138 129 115 118 111 111 109 107 110 111 103 92 77 74 71 67 61 55 57 60 63 67 71 73 74
141 139 139 141 137 133 127 126 124 130 132 136 135 136 132 132 122 114 113 111 111 108 104 108 109 111 111 102 98 82 79 74 69 58 55 55 60 63 68 72 74 75 78
151 147 143 132 129 127 125 128 121 118 118 122 121 121 114 109 110 109 106 107 107 107 106 107 107 108 103 96 86 79 73 61 54 52 54 58 63 68 72 75 77 79 83
127 132 129 128 126 121 116 114 116 115 115 112 108 107 108 107 108 110 108 105 104 105 105 105 107 104 98 86 72 65 53 51 50 54 59 63 68 73 76 77 80 85 91
117 117 117 115 111 108 107 106 107 107 108 106 106 107 106 109 108 109 107 103 101 104 103 107 105 92 84 69 60 54 50 52 55 60 65 70 74 76 78 82 87 92 97
102 104 106 105 103 103 103 104 106 106 106 107 104 107 106 107 107 103 104 103 103 107 113 104 89 84 64 55 53 51 54 58 62 67 71 74 76 79 83 87 92 97 98
95 97 99 99 103 104 106 106 105 101 102 100 105 106 109 108 103 104 103 107 108 109 106 94 77 60 55 54 54 57 60 65 69 72 75 77 81 86 89 93 95 97 101
85 89 91 98 106 110 109 107 105 105 107 109 107 110 108 107 105 108 103 104 105 105 84 73 57 55 55 56 59 64 68 72 74 76 79 84 88 92 94 96 99 102 103
Wind_Direction
284 282 284 287 292 291 291 295 297 300 303 303 304 307 304 305 307 309 312 312 311 316 321 325 327 326 324 323 320 321 321 328 328 329 331 333 330 328 326 325 326 324 323
278 278 283 287 288 290 291 294 296 298 300 302 303 303 305 302 304 309 309 309 310 317 322 323 325 325 322 319 321 321 324 328 329 329 331 331 331 328 326 324 323 321 321
279 279 288 286 285 289 291 294 297 297 299 301 301 302 301 304 306 307 306 306 312 316 319 321 322 322 322 320 320 323 327 328 330 330 332 332 332 330 326 324 321 319 323
277 279 288 285 282 286 291 296 295 295 296 297 298 300 300 301 303 306 305 307 311 315 318 319 321 320 319 318 320 324 326 328 330 332 332 333 333 332 331 328 325 323 325
272 278 284 284 279 284 290 294 292 291 292 294 299 299 297 299 303 307 305 308 310 315 316 318 317 317 317 318 319 324 327 329 330 332 331 333 331 338 337 335 331 326 325
273 281 281 277 277 284 290 290 288 289 290 296 298 295 297 303 306 303 307 305 313 315 317 316 315 316 317 318 321 324 326 329 330 331 330 330 331 337 336 335 331 326 325
276 277 272 272 275 280 289 287 288 290 293 294 294 296 300 302 305 305 307 310 311 313 314 316 313 314 315 319 321 324 327 328 330 328 326 327 327 331 331 329 327 324 322
277 276 274 276 278 282 287 286 287 286 289 291 296 299 300 303 304 306 306 308 308 312 312 312 311 313 317 318 319 321 325 325 328 327 324 325 323 326 325 324 323 321 320
271 271 272 276 278 279 281 286 289 287 288 291 293 295 301 304 305 303 304 304 308 309 308 307 310 312 316 318 320 322 322 327 329 325 323 320 318 319 317 318 319 318 317
269 271 274 277 280 284 285 287 283 286 286 288 292 297 301 301 300 301 301 303 305 306 305 306 309 313 315 317 321 322 325 328 329 324 321 317 313 312 311 313 315 316 315
269 272 275 277 280 281 283 283 287 282 285 289 292 295 299 297 297 299 301 302 304 302 304 306 311 311 315 317 320 322 324 326 327 322 318 316 311 309 310 312 313 314 315
269 272 275 276 276 279 284 284 281 283 285 289 295 295 293 294 296 298 300 300 300 301 304 309 309 311 314 317 319 320 325 325 323 317 317 313 309 307 308 310 313 315 314
272 276 276 276 278 283 280 278 280 288 290 292 293 293 292 294 295 297 298 296 297 300 304 306 307 311 314 316 316 320 320 323 319 316 313 310 306 306 305 308 312 314 312
272 274 276 275 276 277 281 281 287 287 288 287 290 293 291 292 292 294 296 297 298 301 303 305 307 310 313 313 316 315 319 318 313 311 309 307 304 305 304 307 310 312 311
271 272 274 276 278 280 284 284 286 288 287 290 289 288 290 292 291 293 294 296 298 299 302 305 306 309 311 310 311 315 318 317 310 308 306 303 299 301 304 307 310 311 311
274 274 274 277 281 281 283 284 283 285 285 287 286 288 288 290 290 292 294 294 297 301 302 304 306 307 307 309 311 315 317 315 311 304 304 301 297 301 304 307 310 311 310
277 274 275 278 277 279 281 283 281 281 285 286 285 287 288 290 291 293 295 295 297 299 300 305 306 306 306 310 315 317 315 310 308 305 303 298 296 299 302 307 309 310 309
270 271 269 273 277 278 278 276 279 282 282 281 283 284 287 288 291 293 293 294 298 301 302 302 305 305 309 311 313 315 311 301 302 301 298 294 295 298 302 306 308 309 309
269 269 270 272 274 276 276 276 279 283 283 282 284 286 285 287 290 292 291 294 298 299 301 303 304 305 309 310 314 310 308 302 300 300 294 293 297 300 304 306 308 309 310
269 270 271 271 272 276 275 275 275 277 278 279 281 284 284 287 293 291 291 294 299 301 301 301 304 306 306 307 312 307 303 300 300 297 294 298 300 303 306 308 309 309 310
265 267 268 268 269 271 273 276 276 277 279 281 282 285 289 288 290 292 295 297 300 299 302 302 306 306 307 310 309 305 303 301 297 296 299 301 302 304 306 308 309 310 310
262 264 263 264 267 269 271 273 276 277 279 282 284 285 286 289 291 294 296 300 300 299 302 303 304 307 311 309 304 305 300 298 299 300 301 303 305 307 308 309 310 311 311
260 261 262 265 267 269 271 272 275 277 279 281 283 286 288 290 293 293 297 299 299 302 303 304 306 309 309 305 301 299 300 301 302 303 305 306 308 308 308 309 310 310 311
259 260 261 264 266 267 270 272 274 277 280 283 285 285 290 290 293 295 295 297 299 300 302 305 308 308 304 299 297 298 301 302 304 304 306 307 307 307 308 309 310 311 312
258 258 258 259 262 264 267 271 274 278 277 280 282 284 288 288 290 292 293 294 297 299 300 306 304 300 297 296 298 301 302 302 304 306 307 307 307 307 308 310 311 312 314
254 257 257 258 257 260 263 266 268 270 272 276 277 281 282 284 287 289 293 294 297 296 302 302 295 295 295 298 300 302 303 305 306 306 306 306 307 308 310 312 313 313 315
Height
10696 10695 10695 10693 10690 10687 10683 10679 10675 10671 10667 10660 10655 10649 10643 10636 10629 10621 10612 10603 10594 10584 10573 10562 10551 10541 10530 10517 10502 10487 10469 10451 10428 10407 10384 10361 10340 10319 10304 10290 10279 10267 10258
10684 10683 10683 10682 10678 10674 10670 10666 10663 10659 10653 10648 10642 10636 10629 10621 10616 10608 10599 10589 10579 10567 10558 10547 10538 10528 10516 10503 10488 10472 10454 10434 10411 10389 10367 10344 10323 10305 10290 10277 10267 10259 10251
10670 10670 10670 10667 10664 10661 10657 10653 10650 10646 10640 10634 10629 10622 10614 10608 10601 10594 10584 10574 10564 10553 10543 10532 10523 10513 10502 10488 10472 10458 10440 10418 10394 10369 10352 10328 10307 10290 10276 10263 10254 10249 10245
10655 10655 10654 10652 10650 10647 10643 10640 10636 10631 10625 10620 10614 10607 10600 10593 10586 10578 10568 10558 10547 10538 10528 10516 10508 10498 10486 10472 10459 10444 10425 10403 10379 10352 10335 10315 10298 10283 10267 10255 10247 10243 10239
10639 10639 10639 10637 10635 10632 10629 10626 10622 10616 10610 10605 10598 10593 10585 10578 10572 10563 10553 10542 10531 10522 10512 10501 10491 10482 10469 10457 10443 10430 10411 10390 10365 10339 10323 10307 10292 10276 10264 10253 10245 10239 10234
10622 10621 10621 10620 10618 10616 10614 10611 10606 10600 10595 10590 10583 10577 10570 10564 10556 10547 10538 10526 10516 10505 10495 10485 10474 10464 10451 10438 10427 10412 10394 10376 10352 10328 10313 10299 10287 10273 10264 10254 10245 10237 10228
10608 10609 10608 10605 10603 10599 10597 10592 10589 10585 10579 10572 10567 10561 10555 10549 10540 10531 10521 10510 10500 10489 10480 10469 10459 10449 10436 10422 10410 10398 10378 10361 10337 10319 10302 10291 10280 10269 10259 10250 10241 10232 10225
10591 10589 10589 10588 10586 10584 10581 10578 10574 10568 10562 10556 10551 10545 10538 10530 10522 10516 10505 10494 10484 10473 10463 10452 10442 10431 10419 10406 10393 10381 10363 10345 10327 10307 10288 10278 10270 10261 10254 10246 10237 10227 10218
10573 10572 10574 10572 10570 10568 10566 10563 10555 10550 10545 10540 10534 10528 10522 10514 10506 10499 10488 10478 10468 10458 10446 10435 10425 10413 10403 10392 10375 10362 10342 10325 10308 10291 10278 10268 10260 10253 10244 10239 10229 10221 10209
10555 10556 10555 10554 10551 10547 10543 10541 10537 10534 10528 10524 10518 10511 10504 10497 10489 10482 10471 10461 10453 10441 10429 10418 10407 10397 10382 10372 10356 10342 10322 10307 10295 10278 10265 10256 10247 10241 10236 10227 10219 10210 10202
10538 10540 10538 10536 10534 10532 10529 10525 10523 10517 10511 10504 10500 10493 10487 10479 10470 10462 10454 10445 10435 10421 10409 10399 10390 10379 10365 10352 10336 10321 10309 10290 10278 10264 10253 10245 10235 10228 10221 10215 10208 10199 10190
10520 10521 10520 10517 10514 10512 10510 10506 10502 10497 10491 10483 10475 10470 10464 10458 10451 10443 10435 10425 10415 10404 10393 10381 10368 10357 10346 10333 10320 10305 10291 10277 10261 10250 10238 10230 10222 10216 10208 10201 10194 10187 10178
10497 10498 10496 10494 10491 10491 10487 10484 10480 10474 10466 10458 10452 10448 10444 10438 10430 10423 10413 10404 10395 10383 10375 10364 10352 10340 10327 10314 10300 10287 10279 10266 10248 10233 10221 10213 10207 10202 10194 10187 10179 10172 10162
10475 10475 10473 10470 10467 10466 10466 10463 10455 10449 10441 10433 10431 10426 10419 10415 10408 10400 10393 10384 10375 10364 10355 10343 10332 10319 10304 10295 10281 10270 10259 10249 10236 10219 10208 10197 10189 10184 10179 10174 10166 10158 10148
10451 10450 10449 10446 10443 10441 10439 10435 10431 10426 10417 10411 10406 10402 10396 10391 10385 10379 10370 10362 10353 10343 10333 10323 10311 10300 10286 10273 10261 10250 10239 10227 10216 10205 10195 10185 10175 10168 10163 10157 10151 10144 10134
10423 10425 10423 10422 10421 10418 10416 10411 10406 10400 10392 10389 10379 10378 10372 10368 10363 10356 10348 10339 10330 10321 10312 10302 10292 10279 10267 10255 10243 10230 10217 10206 10195 10185 10178 10170 10163 10154 10147 10140 10136 10128 10119
10398 10398 10396 10395 10394 10393 10390 10388 10381 10373 10369 10364 10358 10353 10346 10339 10335 10329 10319 10313 10306 10298 10288 10278 10267 10257 10246 10233 10221 10209 10196 10188 10176 10166 10159 10152 10147 10141 10133 10126 10119 10111 10102
10370 10371 10371 10370 10370 10367 10365 10360 10355 10350 10345 10340 10334 10327 10323 10314 10310 10303 10296 10289 10280 10272 10263 10254 10242 10234 10223 10213 10200 10187 10178 10166 10158 10148 10140 10134 10131 10126 10119 10111 10103 10095 10086
10341 10340 10341 10341 10342 10340 10335 10333 10331 10326 10317 10315 10310 10302 10298 10290 10285 10277 10272 10266 10256 10250 10241 10232 10222 10213 10202 10192 10180 10168 10154 10146 10138 10130 10123 10118 10114 10109 10102 10094 10086 10076 10068
10306 10310 10312 10312 10311 10311 10308 10304 10302 10298 10290 10284 10282 10278 10275 10270 10263 10256 10251 10243 10236 10228 10220 10211 10201 10193 10184 10171 10162 10149 10137 10127 10119 10113 10108 10102 10097 10090 10083 10075 10066 10058 10049
10275 10273 10276 10279 10280 10280 10275 10274 10272 10268 10263 10260 10252 10254 10250 10245 10239 10235 10228 10221 10214 10205 10197 10188 10180 10168 10159 10149 10139 10129 10119 10110 10104 10099 10094 10087 10081 10074 10065 10056 10046 10038 10029
10241 10244 10244 10248 10252 10251 10245 10245 10243 10238 10236 10235 10234 10229 10225 10221 10215 10210 10206 10200 10190 10183 10175 10166 10156 10146 10136 10127 10118 10109 10102 10097 10092 10086 10079 10072 10065 10056 10046 10036 10027 10017 10006
10211 10215 10217 10219 10220 10220 10218 10216 10214 10214 10214 10213 10211 10207 10205 10198 10194 10187 10183 10175 10167 10161 10151 10142 10132 10124 10115 10107 10100 10094 10088 10083 10078 10072 10064 10055 10045 10037 10027 10017 10006 9996 9984
10184 10189 10192 10193 10193 10194 10193 10191 10192 10192 10192 10191 10187 10183 10181 10174 10170 10166 10161 10153 10147 10139 10130 10120 10111 10106 10097 10091 10086 10080 10074 10068 10062 10055 10047 10038 10027 10017 10008 9998 9986 9974 9960
10157 10163 10166 10171 10172 10174 10170 10172 10174 10176 10171 10168 10165 10161 10158 10153 10152 10146 10139 10134 10129 10120 10108 10103 10094 10086 10081 10076 10070 10064 10059 10052 10045 10036 10027 10018 10008 9998 9988 9977 9964 9951 9937
10134 10136 10141 10146 10152 10154 10154 10154 10154 10153 10151 10149 10145 10142 10139 10133 10131 10126 10119 10116 10107 10098 10092 10086 10078 10073 10067 10062 10055 10048 10041 10033 10025 10016 10008 9998 9987 9976 9965 9952 9938 9925 9912